GW1898 Weather Reports


time (UTC)temp
F
wind
direction
speed
knots
gust
knots
rain 1hr
in
rain 24hr
in
rain mn
in
humidity
%
barometer
mb
20260510083042 54 0 0.0 0.0 0.00 0.00 0.00 95 1011.1
20260510081548 54 0 0.0 0.0 0.00 0.00 0.00 95 1011.1
20260510080041 53 0 0.0 0.0 0.00 0.00 0.00 94 1011.1
20260510074541 54 0 0.0 0.0 0.00 0.00 0.00 93 1010.8
20260510073058 54 0 0.0 0.0 0.00 0.00 0.00 93 1010.6
20260510071558 54 0 0.0 0.0 0.00 0.00 0.00 92 1010.6
20260510070047 55 0 0.0 0.0 0.00 0.00 0.00 92 1010.5
20260510064550 55 0 0.0 0.0 0.00 0.00 0.00 92 1010.4
20260510063046 55 0 0.0 0.0 0.00 0.00 0.00 91 1010.3
20260510061538 56 0 0.0 0.0 0.00 0.00 0.00 91 1010.2
20260510060050 56 0 0.0 0.0 0.00 0.00 0.00 91 1010.2
20260510054544 56 0 0.0 0.0 0.00 0.00 0.00 90 1010.1
20260510053046 57 0 0.0 0.0 0.00 0.00 0.00 89 1010.2
20260510051544 57 0 0.0 0.0 0.00 0.00 0.00 90 1010.3
20260510050043 57 0 0.0 0.0 0.00 0.00 0.00 88 1010.3
20260510044548 58 0 0.0 0.0 0.00 0.00 0.00 87 1010.2
20260510043105 58 0 0.0 0.0 0.00 0.00 0.00 86 1010.5
20260510041550 58 0 0.0 0.0 0.00 0.00 0.00 86 1010.3
20260510040049 59 0 0.0 0.0 0.00 0.00 0.00 85 1010.2
20260510034540 59 0 0.0 0.0 0.00 0.00 0.00 83 1010.1
20260510033043 60 0 0.0 0.0 0.00 0.00 0.00 82 1010.0
20260510031551 61 0 0.0 0.0 0.00 0.00 0.00 80 1010.1
20260510030049 62 0 0.0 0.0 0.00 0.00 0.00 79 1010.1
20260510024544 62 0 0.0 0.0 0.00 0.00 0.00 79 1009.9
20260510023040 63 0 0.0 0.0 0.00 0.00 0.00 76 1009.8
20260510021549 64 0 0.0 0.0 0.00 0.00 0.00 74 1009.9
20260510020047 65 0 0.0 0.0 0.00 0.00 0.00 73 1009.5
20260510014541 65 0 0.0 0.9 0.00 0.00 0.00 72 1009.5
20260510013037 65 210 0.0 1.7 0.00 0.00 0.00 71 1009.2
20260510011543 66 198 1.7 5.2 0.00 0.00 0.00 70 1009.0
20260510010042 66 171 0.0 2.6 0.00 0.00 0.00 69 1008.8
20260510004542 66 0 0.0 0.0 0.00 0.00 0.00 70 1008.8
20260510003039 67 0 0.0 0.0 0.00 0.00 0.00 68 1008.7
20260510001540 68 0 0.0 0.0 0.00 0.00 0.00 67 1008.4
20260510000051 70 0 0.0 0.0 0.00 0.00 0.00 61 1008.2
20260509234547 71 0 0.0 0.0 0.00 0.00 0.00 59 1008.1
20260509233046 73 0 0.0 0.0 0.00 0.00 0.00 54 1008.1
20260509231541 74 0 0.0 2.6 0.00 0.00 0.00 52 1008.2
20260509230040 76 170 0.9 2.6 0.00 0.00 0.00 48 1008.1
20260509224550 77 0 0.0 0.9 0.00 0.00 0.00 50 1008.0
20260509223049 75 0 0.0 0.9 0.00 0.00 0.00 51 1008.2
20260509221602 76 0 0.0 4.3 0.00 0.00 0.00 49 1008.3
20260509220044 76 0 0.0 5.2 0.00 0.00 0.00 49 1008.2
20260509214542 76 186 0.9 7.0 0.00 0.00 0.00 50 1008.3
20260509213041 77 169 0.9 7.0 0.00 0.00 0.00 49 1008.3
20260509211544 77 122 0.9 6.1 0.00 0.00 0.00 48 1008.4
20260509210052 76 295 0.9 7.8 0.00 0.00 0.00 50 1008.2
20260509204551 76 165 3.5 9.6 0.00 0.00 0.00 50 1008.1
20260509203047 76 164 2.6 8.7 0.00 0.00 0.00 50 1008.1
20260509201549 76 270 0.0 4.3 0.00 0.00 0.00 51 1008.3
20260509200051 75 246 0.9 9.6 0.00 0.00 0.00 51 1008.5
20260509194546 74 172 2.6 7.8 0.00 0.00 0.00 52 1008.6
20260509193050 73 336 1.7 7.0 0.00 0.00 0.00 55 1008.9
20260509191546 73 167 0.9 6.1 0.00 0.00 0.00 56 1009.0
20260509190049 71 211 2.6 7.8 0.00 0.00 0.00 57 1009.0
20260509184548 70 297 0.0 4.3 0.00 0.00 0.00 59 1009.4
20260509183043 70 81 0.9 5.2 0.00 0.00 0.00 58 1009.8
20260509181546 69 157 0.0 6.1 0.00 0.00 0.00 59 1009.7
20260509180052 68 159 0.9 7.0 0.00 0.00 0.00 59 1010.1
20260509174542 69 0 1.7 5.2 0.00 0.00 0.00 58 1010.3
20260509173040 69 255 0.0 2.6 0.00 0.00 0.00 58 1010.3
20260509171546 69 284 0.9 5.2 0.00 0.00 0.00 57 1010.4
20260509170040 69 116 0.9 6.1 0.00 0.00 0.00 56 1010.3
20260509164554 70 175 2.6 8.7 0.00 0.00 0.00 55 1010.3
20260509163042 70 112 0.9 7.8 0.00 0.00 0.00 56 1010.4
20260509161548 69 153 1.7 7.8 0.00 0.00 0.00 57 1010.4
20260509160042 68 157 0.9 5.2 0.00 0.00 0.00 59 1010.5
20260509154546 68 140 0.9 7.8 0.00 0.00 0.00 58 1010.9
20260509153053 70 303 0.9 6.1 0.00 0.00 0.00 57 1010.8
20260509151547 70 334 0.9 7.0 0.00 0.00 0.00 57 1010.8
20260509150048 67 288 0.9 6.1 0.00 0.00 0.00 61 1011.1
20260509144540 65 214 1.7 7.8 0.00 0.00 0.00 63 1011.3
20260509143041 65 174 1.7 6.1 0.00 0.00 0.00 63 1011.4
20260509141549 64 240 0.9 7.0 0.00 0.00 0.00 65 1011.4
20260509140059 63 215 1.7 6.1 0.00 0.00 0.00 66 1011.4
20260509134615 62 178 1.7 12.2 0.00 0.00 0.00 67 1011.5
20260509133041 62 0 0.0 7.8 0.00 0.00 0.00 68 1011.6
20260509131549 61 0 0.0 4.3 0.00 0.00 0.00 69 1011.5
20260509130041 60 144 0.9 7.8 0.00 0.00 0.00 71 1011.8
20260509124539 60 315 0.9 4.3 0.00 0.00 0.00 69 1011.8
20260509123050 59 139 0.9 6.1 0.00 0.00 0.00 69 1011.6
20260509121543 59 325 0.9 7.0 0.00 0.00 0.00 69 1011.7
20260509120043 58 0 0.9 7.0 0.00 0.00 0.00 71 1011.8
20260509114544 57 209 1.7 8.7 0.00 0.00 0.00 70 1011.7
20260509113051 57 255 0.9 9.6 0.00 0.00 0.00 68 1011.7
20260509111546 57 219 1.7 7.0 0.00 0.00 0.00 66 1011.5
20260509110047 58 175 0.9 5.2 0.00 0.00 0.00 65 1011.6
20260509104542 58 175 1.7 7.8 0.00 0.00 0.00 63 1011.4
20260509103041 58 210 0.9 6.1 0.00 0.00 0.00 62 1011.4
20260509101549 58 180 0.9 6.1 0.00 0.00 0.00 62 1011.3
20260509100046 58 0 0.9 4.3 0.00 0.00 0.00 61 1011.2
20260509094546 59 194 0.9 5.2 0.00 0.00 0.00 61 1011.0
20260509093041 59 158 0.0 3.5 0.00 0.00 0.00 62 1011.1
20260509091540 58 0 0.9 6.1 0.00 0.00 0.00 62 1011.2
20260509090041 59 0 0.0 4.3 0.00 0.00 0.00 61 1011.3
20260509084550 59 195 0.0 3.5 0.00 0.00 0.00 60 1011.4